Weather History for KPPA - March, 2012

Change the Weather History Date:

Wednesday, March 7, 2012

  Actual Average Record
Temperature  
Mean Temperature 62 °F -  
Max Temperature 75 °F 61 °F 83 °F (1972)
Min Temperature 50 °F 29 °F 7 °F (1989)
Degree Days  
Heating Degree Days 2    
Growing Degree Days 12 (Base 50)    
Moisture  
Dew Point 37 °F    
Average Humidity 50    
Maximum Humidity 82    
Minimum Humidity 11    
Precipitation  
Precipitation 0.00 in - - ()
Sea Level Pressure  
Sea Level Pressure 29.76 in    
Wind  
Wind Speed 21 mph (SSW)    
Max Wind Speed 29 mph    
Max Gust Speed 36 mph    
Visibility 10 miles    
Events      
Averages and records for this station are not official NWS values.
T = Trace of Precipitation, MM = Missing Value Source: NWS Daily Summary

Daily Weather History Graph

Daily Weather History Graph

Search for Another Location

Airport or City:

Trip Planner

Search our weather history database for the weather conditions in past years. The results will help you decide how hot, cold, wet, or windy it might be!

Date:

Astronomy

Mar. 07, 2012 Rise Set
Actual Time 7:05 AM CST 6:45 PM CST
Civil Twilight 6:39 AM CST 7:10 PM CST
Nautical Twilight 6:10 AM CST 7:40 PM CST
Astronomical Twilight 5:40 AM CST 8:09 PM CST
Moon 6:22 PM CST (3/7) 6:16 AM CST (3/7)
Length of Visible Light 12h 30m
Length of Day
11h 39m
Waxing Gibbous, 99% of the Moon is Illuminated
Mar 7
Waxing Gibbous
Mar 8
Full
Mar 14
Last Quarter
Mar 22
New
Mar 30
First Quarter

Hourly Weather History & Observations

Time (CST) Temp. Windchill Dew Point Humidity Pressure Visibility Wind Dir Wind Speed Gust Speed Precip Events Conditions
12:15 AM 51.8 °F - 42.8 °F 71% 29.73 in 10.0 mi South 23.0 mph - N/A   Clear
12:55 AM 51.8 °F - 44.6 °F 76% 29.73 in 10.0 mi South 24.2 mph 28.8 mph N/A   Clear
1:15 AM 51.8 °F - 44.6 °F 76% 29.73 in 10.0 mi South 21.9 mph - N/A   Clear
1:55 AM 51.8 °F - 44.6 °F 76% 29.73 in 10.0 mi South 21.9 mph - N/A   Clear
2:15 AM 51.8 °F - 44.6 °F 76% 29.72 in 10.0 mi South 23.0 mph 27.6 mph N/A   Clear
2:35 AM 51.8 °F - 44.6 °F 76% 29.72 in 10.0 mi South 23.0 mph 28.8 mph N/A   Clear
2:55 AM 51.8 °F - 44.6 °F 76% 29.72 in 10.0 mi South 24.2 mph 29.9 mph N/A   Clear
3:55 AM 50.0 °F - 42.8 °F 76% 29.70 in 10.0 mi South 20.7 mph 27.6 mph N/A   Clear
4:15 AM 50.0 °F - 42.8 °F 76% 29.70 in 10.0 mi South 23.0 mph 29.9 mph N/A   Clear
4:35 AM 50.0 °F - 42.8 °F 76% 29.71 in 10.0 mi South 20.7 mph 28.8 mph N/A   Clear
4:55 AM 51.8 °F - 44.6 °F 76% 29.71 in 10.0 mi South 23.0 mph 29.9 mph N/A   Clear
5:15 AM 50.0 °F - 42.8 °F 76% 29.71 in 10.0 mi South 20.7 mph 27.6 mph N/A   Clear
5:35 AM 50.0 °F - 42.8 °F 76% 29.72 in 10.0 mi South 19.6 mph 25.3 mph N/A   Clear
5:55 AM 50.0 °F - 42.8 °F 76% 29.72 in 10.0 mi South 20.7 mph 24.2 mph N/A   Clear
6:35 AM 50.0 °F - 44.6 °F 82% 29.73 in 10.0 mi South 23.0 mph 26.5 mph N/A   Clear
6:55 AM 50.0 °F - 44.6 °F 82% 29.73 in 10.0 mi South 23.0 mph 31.1 mph N/A   Clear
7:15 AM 50.0 °F - 44.6 °F 82% 29.74 in 10.0 mi South 20.7 mph 27.6 mph N/A   Clear
7:35 AM 50.0 °F - 44.6 °F 82% 29.75 in 10.0 mi SSW 20.7 mph 25.3 mph N/A   Clear
7:55 AM 51.8 °F - 44.6 °F 76% 29.76 in 10.0 mi SSW 18.4 mph - N/A   Clear
8:15 AM 51.8 °F - 44.6 °F 76% 29.76 in 10.0 mi SSW 17.3 mph - N/A   Clear
8:35 AM 53.6 °F - 44.6 °F 72% 29.78 in 10.0 mi SSW 19.6 mph 25.3 mph N/A   Clear
8:55 AM 53.6 °F - 44.6 °F 72% 29.79 in 10.0 mi SSW 21.9 mph 27.6 mph N/A   Clear
9:15 AM 57.2 °F - 44.6 °F 63% 29.79 in 10.0 mi SSW 21.9 mph 28.8 mph N/A   Clear
9:35 AM 57.2 °F - 44.6 °F 63% 29.80 in 10.0 mi SSW 26.5 mph 32.2 mph N/A   Clear
9:55 AM 59.0 °F - 44.6 °F 59% 29.80 in 10.0 mi SSW 25.3 mph 29.9 mph N/A   Clear
10:15 AM 60.8 °F - 44.6 °F 55% 29.79 in 10.0 mi SSW 28.8 mph 32.2 mph N/A   Clear
10:35 AM 62.6 °F - 42.8 °F 48% 29.80 in 10.0 mi SSW 24.2 mph 31.1 mph N/A   Clear
10:55 AM 62.6 °F - 42.8 °F 48% 29.79 in 10.0 mi SSW 23.0 mph 33.4 mph N/A   Clear
11:15 AM 64.4 °F - 42.8 °F 45% 29.79 in 10.0 mi SW 27.6 mph 35.7 mph N/A   Clear
11:35 AM 64.4 °F - 41.0 °F 42% 29.80 in 10.0 mi SSW 27.6 mph 33.4 mph N/A   Clear
11:55 AM 66.2 °F - 41.0 °F 40% 29.79 in 10.0 mi SSW 25.3 mph 34.5 mph N/A   Clear
12:15 PM 69.8 °F - 39.2 °F 33% 29.80 in 10.0 mi SW 25.3 mph 31.1 mph N/A   Clear
12:35 PM 69.8 °F - 37.4 °F 31% 29.79 in 10.0 mi SW 24.2 mph 29.9 mph N/A   Clear
12:55 PM 69.8 °F - 37.4 °F 31% 29.79 in 10.0 mi SW 21.9 mph 29.9 mph N/A   Clear
1:15 PM 71.6 °F - 35.6 °F 27% 29.78 in 10.0 mi SSW 19.6 mph 29.9 mph N/A   Clear
1:35 PM 71.6 °F - 33.8 °F 25% 29.78 in 10.0 mi SW 18.4 mph 28.8 mph N/A   Clear
1:55 PM 71.6 °F - 32.0 °F 23% 29.77 in 10.0 mi SW 18.4 mph 24.2 mph N/A   Clear
2:15 PM 71.6 °F - 28.4 °F 20% 29.76 in 10.0 mi SW 17.3 mph 23.0 mph N/A   Clear
2:35 PM 71.6 °F - 30.2 °F 22% 29.75 in 10.0 mi SW 17.3 mph 25.3 mph N/A   Clear
2:55 PM 73.4 °F - 24.8 °F 16% 29.75 in 10.0 mi SW 17.3 mph 23.0 mph N/A   Clear
3:15 PM 73.4 °F - 21.2 °F 14% 29.75 in 10.0 mi WSW 11.5 mph - N/A   Clear
3:35 PM 75.2 °F - 15.8 °F 11% 29.74 in 10.0 mi SW 20.7 mph 24.2 mph N/A   Clear
3:55 PM 73.4 °F - 15.8 °F 11% 29.74 in 10.0 mi SW 21.9 mph 28.8 mph N/A   Clear
4:15 PM 73.4 °F - 17.6 °F 12% 29.74 in 10.0 mi SW 19.6 mph - N/A   Clear
4:35 PM 73.4 °F - 19.4 °F 13% 29.74 in 10.0 mi SW 15.0 mph - N/A   Clear
4:55 PM 73.4 °F - 19.4 °F 13% 29.73 in 10.0 mi SW 10.4 mph - N/A   Clear
5:15 PM 73.4 °F - 21.2 °F 14% 29.73 in 10.0 mi SSW 8.1 mph - N/A   Clear
5:35 PM 73.4 °F - 21.2 °F 14% 29.73 in 10.0 mi Calm Calm - N/A   Clear
5:55 PM 73.4 °F - 26.6 °F 18% 29.73 in 10.0 mi Calm Calm - N/A   Clear
6:15 PM 71.6 °F - 28.4 °F 20% 29.73 in 10.0 mi SE 12.7 mph - N/A   Clear
6:35 PM 69.8 °F - 30.2 °F 23% 29.74 in 10.0 mi SE 11.5 mph - N/A   Clear
6:55 PM 62.6 °F - 35.6 °F 37% 29.77 in 10.0 mi North 19.6 mph 33.4 mph N/A   Clear
7:15 PM 59.0 °F - 37.4 °F 45% 29.78 in 10.0 mi NE 20.7 mph - N/A   Clear
7:35 PM 55.4 °F - 37.4 °F 51% 29.80 in 10.0 mi NNE 17.3 mph 26.5 mph N/A   Clear
7:55 PM 53.6 °F - 37.4 °F 54% 29.81 in 10.0 mi NE 20.7 mph - N/A   Clear
8:15 PM 51.8 °F - 37.4 °F 58% 29.81 in 10.0 mi NE 24.2 mph 28.8 mph N/A   Clear
8:35 PM 50.0 °F - 37.4 °F 62% 29.83 in 10.0 mi NE 21.9 mph 27.6 mph N/A   Clear
8:55 PM 50.0 °F - 35.6 °F 58% 29.85 in 10.0 mi NE 21.9 mph 33.4 mph N/A   Scattered Clouds
9:15 PM 46.4 °F 38.5 °F 35.6 °F 66% 29.86 in 10.0 mi NE 21.9 mph 31.1 mph N/A   Clear
9:35 PM 46.4 °F 38.5 °F 33.8 °F 62% 29.87 in 10.0 mi NE 21.9 mph 31.1 mph N/A   Clear
9:55 PM 44.6 °F 35.7 °F 33.8 °F 66% 29.89 in 10.0 mi NNE 24.2 mph 32.2 mph N/A   Clear
10:15 PM 44.6 °F 35.1 °F 32.0 °F 61% 29.90 in 10.0 mi NNE 27.6 mph 34.5 mph N/A   Clear
10:35 PM 42.8 °F 33.5 °F 32.0 °F 66% 29.93 in 10.0 mi NE 23.0 mph 38.0 mph N/A   Clear
10:55 PM 42.8 °F 32.9 °F 32.0 °F 66% 29.94 in 10.0 mi NNE 26.5 mph 35.7 mph N/A   Scattered Clouds
11:35 PM 41.0 °F 29.7 °F 30.2 °F 65% 29.96 in 10.0 mi NE 31.1 mph 35.7 mph N/A   Overcast
11:55 PM 41.0 °F 30.5 °F 30.2 °F 65% 29.98 in 10.0 mi NNE 26.5 mph 31.1 mph N/A   Overcast